Stations météo

réclame
Mon MeteoGroup
Aelvdalen, Suède (2321): Température de l'air & dewpoint: 12.09.2019 11:00:00 - 18.09.2019 11:00:00 (CEST)Aelvdalen, Suède (2321): Vitesse du vent & gusts: 12.09.2019 11:00:00 - 18.09.2019 11:00:00 (CEST)Aelvdalen, Suède (2321): Direction du vent: 12.09.2019 11:00:00 - 18.09.2019 11:00:00 (CEST)Aelvdalen, Suède (2321): reduced air pressure: 12.09.2019 11:00:00 - 18.09.2019 11:00:00 (CEST)Aelvdalen, Suède (2321): visibility: 12.09.2019 11:00:00 - 18.09.2019 11:00:00 (CEST)Aelvdalen, Suède (2321): Quantités de précipitations: 12.09.2019 11:00:00 - 18.09.2019 11:00:00 (CEST)
Date & Time tt [°C] td [°C] ff [km/h] ff [knt] fx [km/h] fx [knt] dd ppp [hPa] vv [km] rr [mm]
18.09.2019 11:00:00 - - - - - - - - - -
18.09.2019 10:00:00 8,2 2,4 14 8 23 12 NW 1013,2 50 0,0
18.09.2019 09:00:00 5,4 2,7 9 5 18 10 NW 1013,1 50 0,0
18.09.2019 08:00:00 1,6 0,4 3 1 6 3 NW 1013,1 50 0,0
18.09.2019 07:00:00 2,2 1,0 5 3 16 8 N 1012,6 50 0,0
18.09.2019 06:00:00 2,8 1,8 9 5 19 10 NNW 1011,8 50 0,0
18.09.2019 05:00:00 -0,9 -1,2 0 0 7 4 N 1011,5 50 0,0
18.09.2019 04:00:00 -0,8 -1,1 0 0 7 4 N 1010,9 50 0,0
18.09.2019 03:00:00 0,9 0,8 5 3 11 6 NW 1010,5 50 0,0
18.09.2019 02:00:00 -0,9 -1,0 2 1 5 3 ESE 1010,2 50 0,0
18.09.2019 01:00:00 -0,7 -1,0 0 0 3 2 N 1010,0 50 0,0
18.09.2019 00:00:00 0,0 -0,4 0 0 5 3 N 1009,4 50 0,0
17.09.2019 23:00:00 1,4 1,0 0 0 6 3 N 1008,8 50 0,0
17.09.2019 22:00:00 2,4 1,2 4 2 15 8 NE 1007,9 50 0,0
17.09.2019 21:00:00 5,3 2,8 7 4 16 9 NW 1006,6 50 0,0
17.09.2019 20:00:00 6,4 2,7 8 4 22 12 WNW 1005,9 50 0,0
17.09.2019 19:00:00 7,6 2,9 10 5 21 12 WNW 1005,4 50 0,0
17.09.2019 18:00:00 8,1 2,5 16 8 39 21 NW 1004,9 50 0,0
17.09.2019 17:00:00 8,7 3,5 13 7 41 22 NNW 1004,4 50 0,0
17.09.2019 16:00:00 9,3 3,9 10 5 29 15 N 1003,5 43 0,0
17.09.2019 15:00:00 10,1 2,2 22 12 40 22 NNW 1002,9 37 0,0
17.09.2019 14:00:00 10,7 3,5 13 7 29 16 NNW 1002,4 50 0,0
17.09.2019 13:00:00 10,8 2,1 13 7 29 16 NNW 1001,9 46 0,0
17.09.2019 12:00:00 9,4 1,8 13 7 27 14 N 1001,7 50 0,0
17.09.2019 11:00:00 8,9 2,2 5 3 18 10 NW 1001,6 47 0,0
17.09.2019 10:00:00 5,4 1,7 6 3 10 5 NNW 1001,8 50 0,0
17.09.2019 09:00:00 3,7 1,9 0 0 - - N 1001,5 50 0,0
17.09.2019 08:00:00 0,5 0,1 0 0 5 3 N 1001,5 50 0,3
17.09.2019 07:00:00 0,1 -0,3 3 1 - - NNE 1001,2 50 0,0
17.09.2019 06:00:00 -0,2 -0,6 2 1 5 3 SW 1001,3 50 0,0
17.09.2019 05:00:00 -0,3 -0,7 3 1 - - W 1001,6 50 0,0
17.09.2019 04:00:00 -0,7 -1,1 3 1 6 3 NNW 1001,8 50 0,0
17.09.2019 03:00:00 -1,5 -1,9 2 1 - - N 1002,1 50 0,0
17.09.2019 02:00:00 -1,3 -1,4 3 2 7 4 NNW 1002,5 50 0,0
17.09.2019 01:00:00 -0,9 -1,0 0 0 6 3 N 1002,9 50 0,0
17.09.2019 00:00:00 -0,5 -0,8 0 0 8 4 N 1003,1 50 0,0
16.09.2019 23:00:00 -0,3 -0,4 5 3 8 5 W 1003,4 46 0,0
16.09.2019 22:00:00 1,2 0,8 0 0 5 3 N 1003,6 50 0,0
16.09.2019 21:00:00 2,7 2,0 0 0 4 2 N 1003,6 50 0,0
16.09.2019 20:00:00 4,4 2,4 0 0 4 2 N 1003,4 50 0,0
16.09.2019 19:00:00 8,5 1,9 2 1 16 9 WSW 1003,0 50 0,0
16.09.2019 18:00:00 10,7 1,5 11 6 23 12 WNW 1002,7 50 0,0
16.09.2019 17:00:00 11,3 1,8 14 7 31 17 NW 1002,8 48 0,0
16.09.2019 16:00:00 10,4 1,7 14 8 33 18 NW 1002,8 50 0,0
16.09.2019 15:00:00 10,5 1,8 14 8 38 20 WNW 1002,9 50 0,0
16.09.2019 14:00:00 10,2 1,8 14 7 45 24 WNW 1002,6 50 0,0
16.09.2019 13:00:00 10,6 2,2 22 12 42 23 NW 1002,1 50 0,0
16.09.2019 12:00:00 10,8 2,4 21 11 42 23 WNW 1001,1 50 0,0
16.09.2019 11:00:00 10,9 2,5 18 10 38 20 NW 1000,3 50 0,0
16.09.2019 10:00:00 9,4 1,6 11 6 25 13 WNW 1000,2 50 0,0
16.09.2019 09:00:00 8,8 1,5 11 6 22 12 WNW 999,5 50 0,0
16.09.2019 08:00:00 8,3 1,2 8 5 29 16 NW 999,0 50 0,0
16.09.2019 07:00:00 7,4 1,7 10 6 27 15 NW 998,3 50 0,0
16.09.2019 06:00:00 7,0 3,1 9 5 20 11 NW 997,9 50 0,0
16.09.2019 05:00:00 7,5 2,8 11 6 31 17 WNW 997,5 50 0,0
16.09.2019 04:00:00 8,4 3,0 15 8 31 17 WNW 997,1 50 0,0
16.09.2019 03:00:00 8,7 3,1 11 6 20 11 WNW 996,2 50 0,0
16.09.2019 02:00:00 8,9 2,9 11 6 23 12 WNW 995,7 50 0,0
16.09.2019 01:00:00 8,2 3,1 8 4 24 13 WNW 995,1 50 0,0
16.09.2019 00:00:00 8,0 3,8 11 6 19 11 WNW 993,9 50 0,0
15.09.2019 23:00:00 5,3 3,5 2 1 11 6 NE 993,2 50 0,0
15.09.2019 22:00:00 6,0 3,7 3 1 13 7 NE 992,4 50 0,0
15.09.2019 21:00:00 6,6 4,3 3 2 14 8 E 991,8 50 0,0
15.09.2019 20:00:00 11,7 4,0 5 3 28 15 W 990,6 50 0,0
15.09.2019 19:00:00 13,6 3,4 13 7 29 16 WSW 990,0 50 0,0
15.09.2019 18:00:00 13,8 3,8 10 5 36 19 WSW 990,2 50 0,0
15.09.2019 17:00:00 14,1 2,6 20 11 33 18 WSW 990,3 50 0,0
15.09.2019 16:00:00 13,9 2,5 9 5 28 15 WSW 990,9 50 0,0
15.09.2019 15:00:00 13,2 2,7 9 5 32 17 SW 991,8 46 0,0
15.09.2019 14:00:00 12,1 2,3 13 7 39 21 W 992,4 50 0,0
15.09.2019 13:00:00 12,2 1,8 23 13 40 22 WSW 992,5 45 0,0
15.09.2019 12:00:00 11,6 2,6 18 10 34 19 W 992,9 40 0,0
15.09.2019 11:00:00 11,3 2,6 17 9 35 19 W 992,9 42 0,0
15.09.2019 10:00:00 10,7 3,2 15 8 33 18 W 992,9 50 0,0
15.09.2019 09:00:00 9,8 4,6 16 9 31 17 W 993,3 50 0,0
15.09.2019 08:00:00 9,8 5,6 13 7 28 15 W 993,9 50 0,0
15.09.2019 07:00:00 7,7 6,3 8 4 15 8 SW 995,0 50 0,0
15.09.2019 06:00:00 8,9 6,2 10 5 18 10 WSW 995,9 50 0,0
15.09.2019 05:00:00 8,6 6,7 6 4 19 10 WSW 996,2 50 0,0
15.09.2019 04:00:00 9,4 7,7 7 4 18 10 SW 998,0 50 0,0
15.09.2019 03:00:00 9,4 7,7 9 5 19 10 SW 999,2 50 0,0
15.09.2019 02:00:00 9,1 7,7 6 4 17 9 SSW 1000,7 50 0,1
15.09.2019 01:00:00 9,0 7,9 7 4 20 11 S 1002,6 30 1,2
15.09.2019 00:00:00 8,7 7,9 8 4 13 7 SE 1004,8 19 1,2
14.09.2019 23:00:00 8,2 7,6 6 3 - - SSE 1006,9 34 0,7
14.09.2019 22:00:00 7,6 6,9 7 4 14 7 SE 1009,2 17 0,8
14.09.2019 21:00:00 7,7 6,2 4 2 31 17 SSE 1011,9 13 0,4
14.09.2019 20:00:00 9,9 4,5 10 5 29 16 WSW 1013,3 49 0,0
14.09.2019 19:00:00 10,8 3,8 6 3 17 9 SW 1014,1 50 0,0
14.09.2019 18:00:00 11,6 3,9 5 3 18 10 S 1014,9 50 0,0
14.09.2019 17:00:00 12,0 3,2 9 5 19 11 SW 1016,3 50 0,0
14.09.2019 16:00:00 12,5 2,9 11 6 28 15 WSW 1017,1 50 0,0
14.09.2019 15:00:00 13,4 3,7 10 6 29 15 W 1018,1 50 0,0
14.09.2019 14:00:00 12,7 3,4 11 6 22 12 WSW 1018,5 50 0,0
14.09.2019 13:00:00 12,7 3,1 13 7 24 13 W 1019,3 39 0,0
14.09.2019 12:00:00 11,7 2,7 15 8 27 14 WSW 1020,1 50 0,0
14.09.2019 11:00:00 11,3 3,8 6 3 20 11 NNW 1020,2 48 0,0
14.09.2019 10:00:00 8,4 3,6 3 1 6 4 E 1020,8 50 0,0
14.09.2019 09:00:00 3,3 2,1 0 0 - - N 1021,8 50 0,0
14.09.2019 08:00:00 0,0 -0,3 4 2 6 3 E 1021,8 1,0 0,0
14.09.2019 07:00:00 -1,5 -1,8 0 0 4 2 N 1021,6 3,4 0,0
14.09.2019 06:00:00 -0,9 -1,0 2 1 5 3 NNE 1021,1 50 0,0
14.09.2019 05:00:00 -1,3 -1,4 2 1 4 2 SW 1021,0 50 0,0
14.09.2019 04:00:00 -0,8 -1,1 0 0 4 2 N 1020,7 50 0,0
14.09.2019 03:00:00 -0,2 -0,5 3 2 - - NNW 1020,3 6 0,0
14.09.2019 02:00:00 0,5 -0,1 0 0 6 3 N 1019,7 50 0,0
14.09.2019 01:00:00 1,9 1,2 0 0 8 4 N 1019,3 50 0,0
14.09.2019 00:00:00 2,3 1,7 3 2 11 6 N 1018,7 50 0,0
13.09.2019 23:00:00 2,5 2,1 4 2 9 5 NE 1018,2 50 0,0
13.09.2019 22:00:00 3,5 2,9 2 1 8 5 SE 1017,9 50 0,0
13.09.2019 21:00:00 5,6 4,1 5 3 12 7 ENE 1017,2 50 0,0
13.09.2019 20:00:00 7,7 4,1 0 0 9 5 N 1016,6 50 0,0
13.09.2019 19:00:00 10,0 3,7 4 2 14 7 SW 1015,7 50 0,0
13.09.2019 18:00:00 13,5 3,0 5 3 26 14 WNW 1014,9 50 0,0
13.09.2019 17:00:00 14,7 4,1 7 4 22 12 NW 1014,6 47 0,0
13.09.2019 16:00:00 14,0 2,2 9 5 26 14 W 1014,6 50 0,0
13.09.2019 15:00:00 13,7 1,7 14 7 38 21 WNW 1014,5 50 0,0
13.09.2019 14:00:00 14,8 2,0 15 8 37 20 WNW 1013,6 50 0,0
13.09.2019 13:00:00 14,7 2,2 18 10 34 18 W 1013,0 37 0,0
13.09.2019 12:00:00 13,9 2,8 14 8 26 14 W 1012,7 37 0,0
13.09.2019 11:00:00 12,6 4,1 11 6 22 12 W 1012,8 46 0,0
13.09.2019 10:00:00 11,1 5,4 9 5 16 9 W 1012,6 50 0,0
13.09.2019 09:00:00 8,4 6,7 2 1 5 3 NNE 1012,6 50 0,0
13.09.2019 08:00:00 5,3 5,2 0 0 4 2 N 1012,4 40 0,0
13.09.2019 07:00:00 4,9 4,8 0 0 - - N 1011,6 50 0,0
13.09.2019 06:00:00 4,8 4,7 0 0 4 2 N 1010,9 50 0,0
13.09.2019 05:00:00 4,5 4,5 0 0 6 4 N 1010,7 50 0,0
13.09.2019 04:00:00 3,9 3,9 0 0 5 3 N 1010,5 50 0,0
13.09.2019 03:00:00 4,0 3,9 0 0 8 5 N 1010,4 8 0,0
13.09.2019 02:00:00 5,0 4,9 0 0 8 4 N 1009,9 9 0,0
13.09.2019 01:00:00 5,9 5,6 4 2 9 5 E 1009,6 33 0,0
13.09.2019 00:00:00 7,9 7,1 6 4 12 7 S 1009,4 50 0,0
12.09.2019 23:00:00 8,5 6,8 4 2 16 9 E 1009,2 50 0,0
12.09.2019 22:00:00 10,5 7,9 3 2 14 7 ESE 1009,1 50 0,0
12.09.2019 21:00:00 10,4 8,0 8 4 - - E 1009,0 50 0,0
12.09.2019 20:00:00 13,0 8,3 5 3 14 8 SSW 1008,6 50 0,0
12.09.2019 19:00:00 14,5 8,0 7 4 24 13 SW 1008,3 50 0,0
12.09.2019 18:00:00 16,0 7,7 10 5 23 13 WSW 1007,9 50 0,0
12.09.2019 17:00:00 15,8 7,0 8 4 26 14 WSW 1008,2 46 0,0
12.09.2019 16:00:00 16,7 7,9 13 7 33 18 SW 1008,4 45 0,0
12.09.2019 15:00:00 16,8 7,2 16 9 39 21 W 1008,6 42 0,0
12.09.2019 14:00:00 16,2 7,7 16 9 27 15 SW 1008,4 44 0,0
12.09.2019 13:00:00 15,5 6,8 13 7 27 14 SW 1008,1 46 0,0
12.09.2019 12:00:00 15,6 7,4 12 7 21 11 WSW 1008,0 39 0,0
12.09.2019 11:00:00 14,5 7,3 10 6 19 10 W 1008,0 50 0,0

tt = Température de l'air
td = dewpoint
ff = Vitesse du vent
fx = gusts
dd = Direction du vent
ppp = reduced air pressure
vv = visibility
rr = Quantités de précipitations

stations d'obs. à proximité